ギブス彗星

263P/Gibbs (2006)

English version
Home page
Updated on June 22, 2012

---------------------------------------------------------------------

・ プロフィール

符号 263P/2006 Y2
発見日 2006年12月26日
発見光度 18.2等
発見者 A. R. Gibbs (Catalina Sky Survey)

・ 軌道要素

Epoch 2006 Dec. 11.0 TT = JDT 2454080.5
T 2006 Dec. 28.75313 TT                                 MPC
q   1.2512217            (2000.0)            P               Q
n   0.18694867     Peri.   26.30139     -0.74925824     -0.62127248
a   3.0291524      Node   113.35397     +0.55503204     -0.77803810
e   0.5869400      Incl.   14.47104     +0.36131914     -0.09315158
P   5.27
From 131 observations 2006 Nov. 10-2012 June 14, mean residual 0".58.

・ 光度変化

        m1 = 18.0 + 5 logΔ + 10.0 log r(t - 50)

---------------------------------------------------------------------

軌道要素はM.P.E.C. 2012-L44に掲載されたものです。
光度グラフはComet for Windowsで作成したものです。

---------------------------------------------------------------------

Copyright(C) Seiichi Yoshida (comet@aerith.net). All rights reserved.